Temp
9 9 9 8 8 8 8 8 8 7 7 7 6 7 6 6 6 7 6 6 6 6 6 6 6 6 6 6 6 6 6 6 6 6 7 6 6 6 6 6 5 6 6
9 9 8 8 8 8 8 8 8 8 7 7 6 6 6 6 6 6 6 6 6 6 6 6 6 6 6 6 6 6 6 5 6 6 6 6 6 6 6 5 5 5 5
9 8 8 8 8 8 7 7 7 7 7 7 7 7 7 6 6 6 6 6 6 6 6 6 6 6 6 5 5 5 5 5 5 6 5 5 5 5 5 5 5 5 5
9 9 8 8 7 7 7 7 7 7 7 7 7 7 6 6 6 6 6 6 6 5 6 5 5 5 5 5 5 5 5 5 5 5 5 5 5 5 5 5 5 4 5
8 8 8 8 7 7 7 7 7 7 7 7 7 7 7 7 7 6 6 6 6 6 6 6 5 5 5 5 5 5 5 5 5 5 5 5 5 5 4 4 4 3 3
8 8 8 7 7 6 6 6 6 6 6 6 6 7 7 7 7 6 6 6 6 6 6 5 5 5 5 5 5 4 5 4 4 4 4 4 4 3 3 4 3 3 3
8 8 7 7 7 6 6 6 6 6 6 6 6 6 6 6 6 6 6 6 6 5 5 5 5 5 5 5 4 4 4 5 5 4 4 4 3 3 3 3 3 3 2
8 8 8 7 6 6 6 5 5 5 5 5 6 6 5 5 5 5 5 5 5 5 5 5 5 4 4 4 4 4 4 4 4 4 4 3 3 3 3 3 2 2 2
8 8 8 8 7 7 5 4 4 5 5 5 5 5 5 5 4 5 4 4 4 4 4 4 4 3 3 3 3 3 3 3 3 3 2 2 2 2 2 2 2 2 1
8 8 8 8 8 7 6 4 4 4 4 4 4 4 4 4 4 4 4 4 4 3 3 3 3 3 3 2 2 2 2 2 2 2 2 2 2 2 2 2 2 1 1
8 8 8 8 7 7 6 4 4 4 4 4 5 4 4 4 4 4 3 3 3 3 2 2 2 2 2 2 2 1 1 1 1 1 1 2 1 1 2 2 1 0 0
7 7 7 7 7 6 4 4 4 4 4 4 4 4 4 3 3 3 3 3 2 2 2 2 2 2 1 0 1 1 1 1 1 1 1 1 1 1 1 1 1 0 0
7 7 7 7 7 6 5 4 5 4 4 4 4 4 3 3 3 3 3 2 2 2 2 2 2 1 1 0 -0 1 0 1 1 1 1 1 1 1 0 0 -0 -0 -1
7 7 7 7 6 4 5 5 4 4 4 4 3 2 2 3 2 2 2 2 2 2 1 2 2 2 2 1 1 1 1 1 1 1 1 0 -0 -0 -1 -1 -1 -2 -2
6 6 6 5 4 4 4 3 4 4 3 3 2 2 2 2 2 1 2 1 1 1 1 2 2 1 1 1 1 1 1 0 0 -0 -0 -1 -1 -1 -1 -2 -2 -3 -3
5 5 5 5 4 3 3 3 3 3 3 3 2 2 2 2 2 1 2 1 1 1 1 1 1 1 1 0 0 -0 -0 -0 -0 -1 -1 -1 -2 -2 -3 -3 -3 -4 -4
4 4 4 4 4 3 3 3 3 3 3 2 2 2 2 2 2 2 2 1 1 1 0 0 -0 -0 -0 -1 -1 -0 -1 -1 -1 -1 -1 -2 -3 -3 -3 -4 -4 -5 -6
4 3 3 3 3 3 3 2 2 2 2 2 2 2 2 2 1 1 1 1 0 -0 -1 -0 -1 -1 -1 -1 -1 -1 -1 -1 -1 -1 -2 -2 -3 -3 -4 -4 -5 -6 -6
3 3 3 3 3 3 2 2 2 2 2 2 2 2 1 1 1 0 -0 -1 -1 -1 -1 -1 -1 -1 -1 -1 -1 -1 -1 -1 -2 -2 -3 -3 -3 -3 -4 -5 -6 -6 -7
2 2 2 2 2 2 2 2 2 2 2 2 1 1 0 -0 -1 -1 -1 -2 -2 -2 -2 -1 -1 -1 -1 -1 -1 -1 -1 -2 -2 -2 -3 -3 -3 -4 -4 -5 -6 -7 -7
2 2 2 1 1 1 0 0 1 1 1 1 -0 -0 -1 -1 -2 -2 -2 -2 -2 -2 -2 -2 -2 -2 -2 -1 -1 -2 -2 -2 -3 -3 -3 -3 -3 -4 -4 -6 -6 -6 -7
1 1 0 -0 -0 -1 -1 -1 -1 -1 -1 -1 -2 -2 -2 -2 -3 -2 -2 -3 -2 -2 -3 -2 -2 -2 -2 -2 -2 -2 -2 -3 -3 -3 -3 -4 -4 -4 -4 -5 -6 -6 -6
-0 -1 -1 -1 -1 -2 -2 -2 -3 -3 -2 -2 -2 -3 -3 -3 -3 -3 -3 -3 -3 -3 -3 -3 -3 -3 -3 -3 -3 -3 -3 -3 -3 -3 -3 -4 -4 -4 -4 -5 -5 -5 -5
-2 -2 -1 -2 -2 -2 -3 -3 -3 -3 -3 -3 -3 -4 -4 -4 -4 -4 -4 -4 -4 -4 -4 -3 -3 -3 -3 -3 -3 -3 -4 -4 -3 -4 -4 -4 -4 -4 -5 -5 -5 -5 -5
-2 -2 -2 -2 -2 -2 -2 -3 -4 -4 -4 -4 -4 -5 -5 -6 -6 -6 -5 -5 -6 -5 -5 -4 -4 -4 -4 -4 -4 -4 -4 -4 -4 -4 -4 -4 -5 -5 -5 -5 -5 -5 -6
-2 -2 -4 -3 -2 -2 -2 -2 -2 -3 -3 -4 -4 -5 -6 -6 -6 -7 -6 -6 -7 -6 -6 -6 -5 -5 -5 -5 -5 -4 -4 -4 -4 -4 -5 -5 -5 -5 -5 -6 -5 -6 -6
Height
3170 3170 3168 3166 3163 3161 3159 3157 3154 3151 3147 3145 3143 3141 3140 3139 3140 3140 3141 3141 3142 3144 3147 3150 3152 3154 3155 3157 3158 3159 3159 3160 3160 3159 3160 3158 3158 3157 3156 3156 3156 3157 3157
3169 3168 3166 3164 3162 3160 3159 3156 3154 3151 3148 3146 3145 3142 3140 3139 3139 3139 3139 3140 3141 3143 3145 3146 3148 3149 3150 3151 3152 3153 3154 3152 3152 3147 3151 3148 3151 3150 3149 3150 3150 3151 3150
3169 3168 3166 3165 3162 3160 3157 3155 3154 3152 3150 3147 3146 3144 3143 3141 3140 3139 3139 3139 3140 3142 3143 3143 3143 3144 3144 3145 3145 3144 3145 3146 3145 3146 3146 3143 3144 3144 3144 3143 3144 3143 3143
3168 3168 3166 3164 3160 3158 3157 3155 3153 3151 3150 3149 3147 3145 3144 3142 3141 3140 3140 3140 3140 3139 3138 3139 3140 3139 3136 3139 3139 3139 3140 3140 3140 3140 3141 3140 3141 3138 3138 3139 3138 3139 3139
3167 3166 3165 3163 3159 3158 3156 3154 3153 3152 3150 3149 3148 3146 3145 3143 3141 3140 3140 3140 3140 3139 3139 3139 3138 3138 3137 3138 3137 3136 3136 3136 3137 3137 3137 3137 3137 3137 3136 3135 3135 3134 3132
3165 3164 3163 3161 3159 3156 3154 3152 3152 3152 3151 3150 3148 3147 3145 3143 3142 3141 3141 3140 3139 3138 3137 3137 3136 3136 3136 3136 3136 3136 3136 3136 3135 3135 3135 3134 3133 3133 3132 3131 3131 3130 3129
3162 3160 3159 3157 3156 3154 3153 3151 3150 3150 3150 3149 3148 3147 3145 3143 3142 3142 3141 3139 3138 3137 3136 3136 3135 3135 3135 3135 3134 3134 3133 3133 3133 3133 3132 3131 3130 3130 3129 3129 3127 3126 3125
3159 3157 3156 3155 3153 3152 3150 3149 3148 3148 3148 3148 3147 3146 3144 3143 3142 3141 3140 3138 3137 3136 3136 3135 3134 3134 3133 3134 3133 3132 3131 3130 3130 3130 3129 3128 3128 3127 3127 3126 3125 3124 3123
3154 3154 3152 3151 3149 3148 3147 3146 3145 3145 3145 3144 3144 3144 3143 3142 3141 3140 3138 3137 3136 3134 3133 3133 3133 3132 3132 3131 3131 3129 3128 3127 3128 3127 3127 3126 3125 3124 3124 3123 3122 3121 3121
3150 3149 3148 3147 3145 3143 3141 3141 3141 3141 3141 3141 3142 3141 3141 3140 3139 3137 3136 3134 3133 3132 3131 3131 3131 3131 3130 3129 3128 3127 3126 3126 3125 3124 3124 3123 3121 3120 3120 3119 3118 3117 3116
3146 3145 3143 3141 3138 3137 3135 3136 3137 3138 3138 3139 3139 3138 3137 3136 3135 3133 3133 3131 3130 3129 3129 3129 3129 3128 3128 3126 3124 3123 3123 3123 3123 3122 3120 3119 3116 3115 3113 3112 3111 3110 3109
3140 3138 3136 3134 3132 3131 3131 3132 3134 3134 3133 3135 3135 3134 3132 3133 3131 3130 3129 3128 3126 3126 3125 3126 3126 3125 3124 3122 3120 3120 3119 3119 3118 3117 3115 3113 3111 3109 3107 3106 3105 3104 3102
3134 3132 3129 3127 3126 3126 3128 3129 3129 3127 3131 3129 3129 3127 3127 3128 3128 3128 3126 3125 3124 3123 3123 3123 3123 3121 3119 3118 3117 3116 3116 3115 3114 3112 3111 3108 3106 3104 3103 3102 3100 3098 3097
3128 3126 3123 3121 3121 3121 3123 3124 3125 3126 3126 3124 3123 3123 3123 3124 3122 3120 3120 3121 3120 3120 3119 3118 3118 3116 3115 3114 3113 3112 3111 3110 3109 3108 3106 3104 3102 3100 3098 3097 3095 3093 3091
3123 3121 3120 3118 3118 3119 3120 3121 3120 3121 3121 3120 3120 3120 3120 3119 3117 3117 3117 3118 3117 3116 3115 3115 3113 3112 3111 3109 3109 3108 3107 3106 3105 3104 3102 3100 3097 3096 3094 3092 3090 3088 3086
3119 3118 3117 3117 3116 3115 3116 3117 3118 3118 3118 3118 3117 3117 3115 3114 3114 3113 3113 3114 3113 3113 3112 3111 3110 3109 3107 3106 3105 3105 3104 3102 3101 3099 3098 3096 3094 3093 3090 3088 3086 3084 3082
3116 3116 3115 3114 3114 3113 3113 3114 3114 3114 3114 3113 3112 3112 3111 3112 3111 3110 3110 3110 3109 3109 3107 3106 3105 3105 3104 3103 3102 3101 3100 3098 3097 3096 3094 3093 3091 3089 3086 3084 3081 3080 3078
3114 3113 3113 3112 3112 3111 3110 3110 3110 3110 3110 3109 3109 3108 3108 3108 3107 3107 3106 3106 3105 3104 3103 3102 3102 3101 3100 3100 3099 3098 3096 3095 3094 3092 3090 3089 3087 3085 3083 3080 3078 3076 3074
3112 3112 3112 3111 3110 3109 3109 3109 3108 3107 3106 3106 3104 3104 3104 3103 3103 3103 3102 3102 3100 3100 3100 3099 3098 3098 3097 3096 3096 3095 3093 3092 3091 3089 3087 3086 3084 3082 3080 3077 3076 3074 3072
3111 3111 3111 3110 3109 3108 3107 3107 3105 3104 3103 3102 3101 3101 3100 3100 3099 3098 3098 3098 3098 3097 3096 3095 3095 3094 3093 3092 3092 3091 3090 3089 3088 3086 3085 3083 3081 3079 3077 3075 3074 3072 3071
3110 3109 3109 3108 3107 3106 3105 3105 3103 3102 3100 3099 3098 3097 3098 3097 3096 3097 3097 3096 3096 3094 3093 3092 3091 3089 3088 3088 3088 3087 3086 3086 3084 3083 3082 3080 3079 3077 3076 3073 3072 3070 3069
3109 3108 3108 3108 3107 3106 3105 3104 3103 3101 3099 3098 3097 3096 3096 3096 3096 3095 3095 3093 3092 3091 3089 3088 3086 3085 3084 3084 3083 3083 3083 3082 3081 3080 3078 3077 3076 3075 3073 3072 3070 3068 3067
3108 3108 3107 3107 3106 3104 3103 3103 3102 3101 3099 3097 3096 3095 3095 3094 3093 3092 3091 3090 3089 3087 3085 3083 3082 3081 3080 3079 3079 3079 3078 3078 3077 3076 3075 3074 3073 3071 3070 3069 3068 3067 3066
3106 3106 3106 3105 3105 3103 3102 3101 3101 3100 3098 3096 3094 3093 3092 3091 3089 3088 3087 3086 3084 3082 3080 3079 3077 3076 3075 3074 3074 3074 3073 3073 3072 3071 3071 3070 3068 3068 3067 3066 3065 3064 3063
3105 3104 3104 3104 3103 3102 3101 3099 3097 3096 3094 3092 3091 3089 3088 3087 3085 3084 3083 3081 3079 3077 3076 3074 3072 3070 3069 3069 3069 3068 3068 3067 3067 3066 3065 3065 3064 3063 3063 3062 3061 3060 3059
3102 3102 3102 3100 3099 3098 3096 3094 3093 3091 3089 3088 3087 3086 3085 3083 3082 3080 3078 3076 3075 3072 3070 3068 3067 3065 3064 3063 3063 3062 3061 3061 3061 3060 3060 3059 3059 3058 3057 3057 3057 3056 3055
Wind_Speed
2 6 9 12 13 14 14 16 16 15 14 13 8 5 3 4 6 6 7 8 11 14 19 21 23 25 26 25 25 26 27 29 31 32 32 28 31 30 28 24 21 23 23
3 7 11 12 11 11 12 14 14 13 14 11 9 7 6 4 1 3 5 6 9 12 15 18 21 23 25 26 27 27 28 29 28 28 24 22 24 23 23 27 30 33 32
3 5 9 11 13 13 10 12 12 11 11 12 8 7 6 6 6 4 1 3 5 7 12 15 17 19 22 20 24 29 27 24 18 22 20 16 19 25 24 22 19 22 22
5 7 9 13 14 18 12 9 11 9 9 7 9 7 6 5 5 4 4 2 4 5 9 8 8 8 7 13 9 11 12 16 17 15 17 17 17 7 13 19 17 25 23
9 9 11 12 14 17 16 11 9 8 6 5 6 7 8 7 6 4 3 3 5 6 6 4 6 11 12 10 12 12 6 9 13 13 11 12 18 23 21 24 24 21 18
10 11 13 13 15 17 18 12 7 7 5 4 5 6 6 6 5 4 5 5 5 4 4 5 6 5 6 8 6 2 5 9 9 10 10 13 14 14 18 18 15 19 19
12 13 14 15 16 18 17 12 8 6 5 4 5 6 6 5 3 5 6 8 7 6 5 5 7 7 7 5 4 8 8 8 8 8 11 10 9 10 11 11 11 9 4
13 14 14 16 16 19 17 13 9 8 7 7 6 5 5 5 5 6 7 8 8 8 6 5 4 4 5 7 8 9 10 10 12 11 9 8 6 6 10 10 8 13 15
15 15 16 16 18 20 17 13 12 10 9 9 8 7 6 6 8 11 13 13 11 9 8 6 6 4 5 7 7 7 8 10 12 13 11 12 10 12 12 11 14 14 16
18 18 17 18 19 19 18 12 14 13 12 11 11 10 9 9 10 12 16 17 11 8 7 6 5 5 9 9 9 8 11 11 14 10 10 10 12 15 17 18 20 22 23
21 19 20 21 20 18 15 15 13 15 16 13 14 15 14 16 16 17 17 9 8 6 7 8 8 8 12 14 14 12 11 12 13 15 16 18 20 19 20 20 21 24 26
20 21 22 20 18 15 13 16 16 15 13 13 17 16 15 15 14 19 17 10 9 6 8 9 13 13 19 19 8 9 12 17 19 19 18 18 19 20 21 21 22 23 23
21 22 20 17 14 14 14 18 15 15 17 13 18 21 12 13 15 16 11 11 10 7 8 11 15 20 24 17 14 14 17 18 18 18 18 17 16 16 16 17 18 20 20
21 18 16 13 8 12 13 18 21 19 15 19 8 4 10 14 16 14 13 13 12 13 15 17 13 11 11 11 13 15 16 16 14 13 13 15 16 17 19 19 20 19 20
18 14 11 9 9 11 10 16 15 17 14 11 12 12 12 15 13 13 14 12 12 15 16 15 15 14 14 14 13 11 11 11 12 14 15 17 17 18 18 18 19 19 19
12 8 8 8 8 8 11 15 9 7 9 12 15 13 13 12 14 14 13 13 16 17 16 16 15 14 11 10 9 10 11 13 15 15 15 15 15 16 16 17 17 17 17
8 7 8 8 8 8 10 12 13 14 15 14 11 10 9 11 13 15 16 16 17 16 15 14 11 8 8 10 11 13 14 14 14 14 13 13 13 14 15 16 15 13 12
8 8 8 8 7 7 7 7 8 9 10 10 11 12 13 14 16 17 18 18 16 13 11 9 9 10 11 13 14 15 14 13 12 12 12 12 13 15 16 16 16 13 11
6 7 6 6 5 5 6 7 8 10 11 13 13 14 15 16 16 16 15 13 10 8 8 11 13 14 15 14 14 13 12 11 10 9 10 12 14 15 15 15 14 10 9
6 6 6 6 7 8 8 9 10 11 11 13 13 14 13 13 12 10 8 6 7 9 11 14 16 16 15 14 13 12 11 9 8 8 9 11 13 13 14 12 10 7 7
4 5 6 6 6 6 6 7 8 8 8 8 8 9 9 8 6 7 7 8 11 13 13 15 16 15 14 14 13 12 10 8 7 7 8 10 11 9 12 9 5 5 7
2 3 4 4 4 5 6 8 9 9 8 7 6 6 7 7 8 10 11 11 14 15 15 16 16 15 14 14 14 12 11 10 9 8 8 9 9 9 8 4 4 6 6
2 1 2 4 5 5 7 9 11 12 11 9 7 8 9 11 12 13 15 17 17 17 17 17 17 16 15 14 14 14 12 11 10 9 9 9 9 8 7 5 4 5 5
3 3 5 7 8 8 9 12 12 13 14 13 11 10 12 13 15 16 18 19 19 19 20 19 19 17 16 15 15 15 14 13 12 11 10 10 10 10 9 8 10 9 7
6 4 6 9 10 11 13 14 15 16 17 17 15 15 16 16 17 19 20 21 21 21 21 19 19 18 17 17 16 15 15 15 14 14 13 12 11 12 12 12 11 10 9
7 8 10 14 14 15 17 17 18 20 20 20 19 19 20 20 22 23 25 25 23 21 21 20 19 19 19 19 18 17 17 17 17 17 16 15 14 14 14 14 14 13 12
Wind_Direction
327 345 356 6 4 355 348 352 357 6 12 10 3 10 339 253 242 249 258 254 234 229 226 233 238 245 249 252 251 252 257 262 264 265 267 264 267 271 267 263 265 271 278
357 4 5 3 4 357 351 350 353 0 2 7 14 21 32 39 199 240 253 244 232 232 236 237 241 245 249 252 256 258 259 261 263 258 266 263 275 274 263 264 275 276 267
303 353 2 3 9 2 351 350 346 355 358 359 6 19 19 41 51 51 338 292 242 244 250 244 242 248 248 249 257 255 252 257 256 280 277 282 257 281 286 285 286 267 264
285 324 349 355 5 6 2 348 342 352 359 2 17 20 23 22 29 32 15 326 237 269 277 297 293 283 296 297 288 291 286 282 269 266 263 275 264 238 242 272 270 278 277
279 304 326 340 352 351 355 352 341 339 350 360 10 10 11 12 17 14 6 347 325 311 286 276 268 248 254 255 258 266 280 267 243 260 273 281 287 292 290 296 298 296 285
288 307 318 327 335 337 342 344 341 322 322 339 1 7 8 10 15 18 15 356 339 320 302 256 268 301 306 310 297 267 319 297 302 306 294 296 282 278 286 278 286 288 280
305 314 320 318 323 326 325 323 326 299 289 309 339 359 355 348 344 340 349 360 352 344 327 300 282 290 296 317 289 291 292 302 307 299 296 291 294 291 292 290 298 278 282
301 308 316 310 310 309 304 313 293 289 269 281 309 325 344 339 331 328 330 334 333 330 331 330 330 320 316 299 306 304 304 301 297 296 292 285 269 257 285 292 293 300 305
308 311 312 314 307 296 283 278 269 263 253 258 285 287 310 310 316 322 321 317 318 303 294 298 312 308 321 315 311 316 319 314 306 294 284 282 275 280 294 300 291 288 293
306 308 305 308 305 295 279 249 252 251 255 267 268 285 291 300 309 310 319 302 302 291 279 285 279 276 310 307 295 307 320 313 328 308 301 304 304 294 287 284 281 286 292
305 303 305 308 300 286 273 248 238 250 264 255 279 276 287 289 300 305 313 299 308 310 282 290 283 284 307 302 295 303 306 321 315 304 305 300 299 295 293 293 292 291 293
301 304 306 306 299 259 251 244 240 261 259 273 263 282 289 290 302 298 303 290 317 281 295 289 292 284 310 312 307 297 300 299 306 304 302 302 302 302 302 301 300 298 298
303 306 306 307 290 254 233 234 260 256 263 275 273 259 271 294 302 291 284 291 277 290 294 287 288 288 297 294 282 286 289 293 297 299 301 303 307 310 312 311 309 307 305
306 306 311 310 275 219 225 238 246 254 275 278 214 296 307 273 276 265 258 265 271 280 290 306 304 296 300 296 293 294 297 301 304 308 314 317 319 318 318 316 315 313 312
304 307 310 298 268 244 248 236 256 263 267 231 274 279 260 269 276 274 277 274 263 267 291 294 296 300 300 296 294 294 297 304 311 317 320 320 320 320 320 319 317 314 313
301 301 309 306 289 268 248 253 271 262 251 270 280 264 263 272 273 269 272 258 271 281 286 290 293 292 289 288 294 304 312 315 317 319 321 320 320 321 322 321 318 314 310
293 294 305 307 296 286 255 249 266 267 269 269 274 269 273 279 279 280 278 276 276 280 287 291 288 283 291 301 307 308 309 311 316 316 317 322 332 339 340 341 339 330 320
283 296 301 290 281 273 267 263 262 266 267 268 270 270 269 266 266 270 272 274 278 284 286 281 285 292 297 301 302 303 305 309 311 317 328 337 339 338 337 337 337 330 328
292 286 277 273 276 281 285 282 279 276 273 271 270 268 265 265 266 266 268 273 276 275 281 289 295 297 298 299 297 295 299 303 311 323 331 333 336 336 333 333 336 334 333
270 270 278 290 296 298 301 300 296 288 284 280 275 271 268 264 261 261 261 266 280 285 290 294 293 295 296 292 291 292 293 295 311 320 325 332 338 338 338 333 336 335 347
277 295 305 308 309 309 313 314 312 308 303 290 279 270 260 249 242 255 270 281 290 290 293 292 293 294 290 286 285 285 281 282 297 305 322 332 334 328 340 344 347 343 331
294 312 307 303 317 335 345 344 340 342 348 319 302 280 268 265 270 276 280 289 292 299 303 301 297 291 282 278 279 274 269 275 283 292 307 315 319 326 328 342 358 352 346
188 190 293 308 321 333 338 341 344 345 341 336 313 294 281 278 282 289 294 294 298 304 307 302 294 283 271 269 270 266 264 270 277 281 287 296 303 308 297 284 288 321 322
198 256 279 292 298 310 321 318 319 323 328 327 318 303 296 295 295 296 294 295 298 301 301 296 288 281 270 266 266 261 261 266 271 272 276 285 290 289 283 277 270 278 279
273 302 332 327 322 320 312 303 300 302 309 313 310 306 302 305 303 300 301 302 297 292 290 287 283 280 273 266 264 263 261 262 267 270 273 278 280 279 276 270 268 267 265
262 277 299 321 316 317 315 307 300 296 295 295 295 294 291 289 294 298 298 301 296 288 289 290 286 280 274 268 266 264 264 265 266 268 270 271 273 273 272 271 268 265 262